{"data":{"norad_id":59945,"intl_designator":"2024-107A","name":"STARLINK-11145 [DTC]","alt_names":[],"object_type":"PAYLOAD","status":"ACTIVE","operator":null,"country":"US","launch_date":"2024-06-05","launch_site_code":"AFETR","launch_vehicle":null,"mission":null,"orbit_class":"UNKNOWN","rcs_meters":null,"size_class":null,"mass_kg":null,"dimensions":null,"purposes":["comms"],"wikipedia_slug":null,"has_3d_model":false,"image_url":null,"decayed_at":null,"tle_current":{"epoch":"2026-09-21T13:10:16.056480Z","epoch_age_seconds":87017,"freshness":"FRESH","line1":"1 59945U 24107A   26264.54879695 -.00001371  00000+0 -64591-5 0  9992","line2":"2 59945  53.1596   6.0619 0001477  79.4374 280.6810 15.69701564132902","mean_motion":15.69701564,"eccentricity":0.0001477,"inclination_deg":53.1596,"raan_deg":6.0619,"arg_perigee_deg":79.4374,"mean_anomaly_deg":280.681,"bstar":-6.4591e-6,"rev_number":13290,"period_min":91.737183234405,"perigee_km":358.75570508925,"apogee_km":360.74607717229,"semimajor_km":6737.8878911308,"source":"CELESTRAK","updated_at":"2026-09-22T09:00:49.115634Z"}}}